Weather History for Adrian, MI

Change the Weather History Date:

Friday, October 21, 2011

  Actual Average Record
Temperature  
Mean Temperature 45 °F -  
Max Temperature 48 °F 58 °F 83 °F (1953)
Min Temperature 42 °F 37 °F 18 °F (1974)
Degree Days  
Heating Degree Days 20    
Moisture  
Dew Point 39 °F    
Average Humidity 78    
Maximum Humidity 85    
Minimum Humidity 71    
Precipitation  
Precipitation 0.00 in - - ()
Sea Level Pressure  
Sea Level Pressure 30.00 in    
Wind  
Wind Speed 8 mph (NW)    
Max Wind Speed 12 mph    
Max Gust Speed 17 mph    
Visibility 10 miles    
Events      
Averages and records for this station are not official NWS values.
T = Trace of Precipitation, MM = Missing Value Source: NWS Daily Summary

Daily Weather History Graph

Daily Weather History Graph

Search for Another Location

Airport:

Trip Planner

Search our weather history database for the weather conditions in past years. The results will help you decide how hot, cold, wet, or windy it might be!

Date:

Astronomy

Oct. 21, 2011 Rise Set
Actual Time 7:55 AM EDT 6:46 PM EDT
Civil Twilight 7:26 AM EDT 7:14 PM EDT
Nautical Twilight 6:54 AM EDT 7:46 PM EDT
Astronomical Twilight 6:22 AM EDT 8:18 PM EDT
Moon 1:38 AM EDT (10/21) 3:34 PM EDT (10/21)
Length of Visible Light 11h 47m
Length of Day
10h 50m
Waning Crescent, 34% of the Moon is Illuminated
Oct 21
Waning Crescent
Oct 26
New
Nov 2
First Quarter
Nov 10
Full
Nov 18
Last Quarter

Hourly Weather History & Observations

Time (EDT) Temp. Windchill Dew Point Humidity Pressure Visibility Wind Dir Wind Speed Gust Speed Precip Events Conditions
12:53 AM 44.1 °F 39.0 °F 39.9 °F 85% 29.77 in 10.0 mi WNW 9.2 mph - N/A   Overcast
1:53 AM 44.1 °F 38.6 °F 39.9 °F 85% 29.80 in 10.0 mi WNW 10.4 mph - N/A   Overcast
2:53 AM 44.1 °F 40.1 °F 39.9 °F 85% 29.82 in 10.0 mi WNW 6.9 mph - N/A   Overcast
3:53 AM 44.1 °F 40.1 °F 39.9 °F 85% 29.84 in 10.0 mi West 6.9 mph - N/A   Overcast
4:53 AM 44.1 °F 39.5 °F 39.9 °F 85% 29.87 in 10.0 mi WNW 8.1 mph - N/A   Overcast
6:53 AM 44.1 °F 39.0 °F 39.0 °F 82% 29.92 in 10.0 mi NW 9.2 mph - N/A   Overcast
7:30 AM 44.6 °F 40.7 °F 39.2 °F 81% 29.92 in 10.0 mi WNW 6.9 mph - N/A   Overcast
7:53 AM 44.1 °F 39.5 °F 39.0 °F 82% 29.95 in 10.0 mi NW 8.1 mph - N/A   Overcast
8:53 AM 44.1 °F 40.1 °F 39.0 °F 82% 29.98 in 10.0 mi NW 6.9 mph - N/A   Mostly Cloudy
9:51 AM 46.4 °F 41.5 °F 37.4 °F 71% 29.98 in 10.0 mi NW 10.4 mph - N/A   Mostly Cloudy
9:53 AM 46.0 °F 41.9 °F 37.9 °F 73% 30.00 in 10.0 mi NW 8.1 mph 17.3 mph N/A   Mostly Cloudy
11:53 AM 46.9 °F - 37.9 °F 71% 30.03 in 10.0 mi NNW 11.5 mph 17.3 mph N/A   Overcast
12:53 PM 46.9 °F - 39.0 °F 74% 30.04 in 10.0 mi WNW 10.4 mph - N/A   Overcast
1:53 PM 46.9 °F - 39.9 °F 77% 30.03 in 10.0 mi NNW 6.9 mph - N/A   Overcast
2:53 PM 48.0 °F - 39.9 °F 74% 30.04 in 10.0 mi NW 8.1 mph - N/A   Overcast
3:53 PM 46.9 °F - 39.9 °F 77% 30.05 in 10.0 mi NW 8.1 mph - N/A   Overcast
4:53 PM 46.9 °F - 39.9 °F 77% 30.06 in 10.0 mi WNW 8.1 mph - N/A   Overcast
5:53 PM 46.9 °F - 39.9 °F 77% 30.07 in 10.0 mi WNW 5.8 mph - N/A   Overcast
6:53 PM 46.9 °F - 39.9 °F 77% 30.09 in 10.0 mi West 3.5 mph - N/A   Overcast
7:53 PM 46.0 °F - 37.9 °F 73% 30.10 in 10.0 mi Calm Calm - N/A   Overcast
8:22 PM 46.4 °F 45.2 °F 37.4 °F 71% 30.09 in 10.0 mi NW 3.5 mph - N/A   Overcast
8:53 PM 46.0 °F 43.9 °F 37.9 °F 73% 30.11 in 10.0 mi NW 4.6 mph - N/A   Overcast
9:53 PM 45.0 °F 41.8 °F 37.0 °F 74% 30.12 in 10.0 mi NW 5.8 mph - N/A   Overcast
11:49 PM 42.8 °F - 35.6 °F 76% 30.10 in 10.0 mi Calm Calm - N/A   Scattered Clouds
11:53 PM 42.1 °F - 36.0 °F 79% 30.12 in 10.0 mi Calm Calm - N/A   Partly Cloudy